contact:dominique.lefevre@mio.osupytheas.fr, maurice.libes@osupytheas.fr, didier.mallarino@osupytheas.fr
Project:EMSO http://www.emso-fr.org/EMSO-France
Depth: 2436.0 m
Title:EMSO Ligure Ouest : Data MII capteur AQUADOPP
Date,Latitude,Longitude,X_East,Y_North,Z_Up,Amplitude_X,Amplitude_Y,Amplitude_Z,Batterie,SoundSpeed,Heading,Pitch,Roll,Pressure,TIS,Speed,Direction
, degrees North, degrees East, m.s-1, m.s-1,m.s-1, 1, 1, 1, Volt, m.s-1, degree, degree, degree, dbar, degree_C, m.s-1, degree
2020-02-06T00:04:03,42.805,6.029,0.069,0.0,-0.045,105.0,110.0,102.0,13.3,1505.2,325.6,-0.8,1.8,2470.198,13.3,0.068,90.0
2020-02-06T00:07:03,42.805,6.029,0.039,-0.005,-0.034,105.0,110.0,101.0,13.4,1505.3,326.7,-0.7,1.8,2470.183,13.31,0.039,97.3
2020-02-06T00:10:03,42.805,6.029,0.07,0.013,0.016,104.0,109.0,101.0,13.4,1505.3,324.8,-0.7,1.8,2470.14,13.31,0.071,79.5
2020-02-06T00:16:03,42.805,6.029,0.039,-0.002,-0.005,106.0,112.0,100.0,13.3,1505.2,324.7,-0.8,1.8,2470.227,13.3,0.039,92.9
2020-02-06T00:19:03,42.805,6.029,0.038,-0.003,-0.048,105.0,112.0,102.0,13.4,1505.3,323.3,-0.7,1.8,2470.193,13.31,0.038,94.5
2020-02-06T00:22:03,42.805,6.029,0.043,-0.001,-0.015,105.0,109.0,102.0,13.4,1505.3,328.3,-0.8,1.8,2470.135,13.31,0.043,91.3
2020-02-06T00:25:03,42.805,6.029,0.046,-0.026,-0.015,104.0,110.0,101.0,13.3,1505.3,327.2,-0.7,1.9,2470.188,13.32,0.052,119.5
2020-02-06T00:28:03,42.805,6.029,0.04,-0.011,-0.023,104.0,113.0,101.0,13.4,1505.3,328.5,-0.7,1.8,2470.213,13.32,0.041,105.4
2020-02-06T00:31:03,42.805,6.029,0.035,0.003,-0.044,106.0,112.0,102.0,13.4,1505.3,326.7,-0.7,1.8,2470.193,13.32,0.035,85.1
2020-02-06T00:34:03,42.805,6.029,0.056,-0.014,-0.021,105.0,110.0,101.0,13.4,1505.3,327.6,-0.7,1.8,2470.194,13.32,0.057,104.0
2020-02-06T00:37:03,42.805,6.029,0.047,0.008,0.0,105.0,109.0,103.0,13.4,1505.3,325.0,-0.7,1.8,2470.165,13.32,0.047,80.3
2020-02-06T00:40:03,42.805,6.029,0.037,-0.012,0.006,104.0,111.0,101.0,13.4,1505.3,323.9,-0.7,1.8,2470.173,13.32,0.038,108.0
2020-02-06T00:43:03,42.805,6.029,0.038,-0.001,-0.016,104.0,112.0,102.0,13.4,1505.3,325.8,-0.7,1.9,2470.223,13.32,0.038,91.5
2020-02-06T00:46:03,42.805,6.029,0.045,0.0,-0.004,106.0,112.0,102.0,13.4,1505.3,328.1,-0.7,1.8,2470.174,13.32,0.045,90.0
2020-02-06T00:49:03,42.805,6.029,0.044,0.009,-0.041,105.0,110.0,101.0,13.4,1505.3,323.4,-0.7,1.9,2470.188,13.32,0.044,78.4
2020-02-06T00:52:03,42.805,6.029,0.036,0.016,-0.009,106.0,111.0,103.0,13.4,1505.3,325.3,-0.7,1.8,2470.168,13.32,0.039,66.0
2020-02-06T00:55:03,42.805,6.029,0.054,0.012,-0.013,104.0,111.0,102.0,13.4,1505.3,326.7,-0.7,1.8,2470.203,13.32,0.055,77.5
2020-02-06T00:58:03,42.805,6.029,0.051,0.004,0.003,105.0,113.0,101.0,13.4,1505.3,324.3,-0.7,1.9,2470.165,13.32,0.051,85.5
2020-02-06T01:04:03,42.805,6.029,0.036,-0.004,-0.036,106.0,112.0,103.0,13.3,1505.2,327.8,-0.7,1.8,2470.245,13.3,0.036,96.3
2020-02-06T01:07:03,42.805,6.029,0.062,-0.002,-0.019,105.0,112.0,103.0,13.4,1505.3,324.1,-0.7,1.8,2470.196,13.31,0.062,91.8
2020-02-06T01:10:03,42.805,6.029,0.057,0.0,-0.022,105.0,110.0,103.0,13.3,1505.3,323.5,-0.7,1.8,2470.219,13.31,0.057,90.0
2020-02-06T01:16:03,42.805,6.029,0.041,0.024,-0.005,107.0,110.0,102.0,13.4,1505.2,326.8,-0.7,1.9,2470.224,13.3,0.047,59.7
2020-02-06T01:19:03,42.805,6.029,0.063,-0.021,-0.033,105.0,107.0,102.0,13.4,1505.3,324.4,-0.7,1.8,2470.214,13.31,0.066,108.4
2020-02-06T01:22:03,42.805,6.029,0.048,-0.015,-0.045,104.0,110.0,102.0,13.3,1505.3,327.8,-0.7,1.8,2470.222,13.31,0.05,107.4
2020-02-06T01:25:03,42.805,6.029,0.061,0.002,-0.016,106.0,111.0,103.0,13.4,1505.3,326.9,-0.7,1.9,2470.245,13.32,0.061,88.1
2020-02-06T01:28:03,42.805,6.029,0.063,-0.014,0.005,105.0,112.0,101.0,13.4,1505.3,323.8,-0.7,1.8,2470.234,13.32,0.064,102.5
2020-02-06T01:31:03,42.805,6.029,0.045,0.004,-0.047,105.0,110.0,103.0,13.4,1505.3,324.9,-0.7,1.8,2470.211,13.32,0.045,84.9
2020-02-06T01:34:03,42.805,6.029,0.034,0.011,-0.009,107.0,112.0,102.0,13.4,1505.3,325.1,-0.7,1.9,2470.19,13.32,0.035,72.1
2020-02-06T01:37:03,42.805,6.029,0.054,-0.012,-0.017,106.0,110.0,102.0,13.4,1505.3,327.8,-0.7,1.8,2470.213,13.32,0.055,102.5
2020-02-06T01:40:03,42.805,6.029,0.041,0.0,-0.008,106.0,111.0,103.0,13.3,1505.3,324.7,-0.7,1.8,2470.257,13.32,0.041,90.0
2020-02-06T01:43:03,42.805,6.029,0.031,0.007,-0.027,104.0,111.0,102.0,13.3,1505.3,326.4,-0.7,1.8,2470.244,13.32,0.031,77.3
2020-02-06T01:46:03,42.805,6.029,0.035,0.0,-0.013,106.0,111.0,102.0,13.4,1505.3,323.8,-0.7,1.8,2470.237,13.32,0.035,90.0
2020-02-06T01:49:03,42.805,6.029,0.054,-0.003,-0.002,106.0,112.0,103.0,13.4,1505.3,327.0,-0.7,1.9,2470.239,13.32,0.054,93.2
2020-02-06T01:52:03,42.805,6.029,0.037,-0.003,-0.028,105.0,110.0,102.0,13.3,1505.3,328.0,-0.7,1.8,2470.225,13.32,0.037,94.6
2020-02-06T01:55:03,42.805,6.029,0.061,-0.002,-0.051,107.0,109.0,102.0,13.4,1505.3,324.9,-0.7,1.8,2470.235,13.32,0.061,91.9
2020-02-06T01:58:03,42.805,6.029,0.054,0.0,-0.019,106.0,112.0,102.0,13.3,1505.3,323.4,-0.8,1.8,2470.241,13.32,0.053,90.0
2020-02-06T02:04:03,42.805,6.029,0.066,-0.024,-0.013,106.0,111.0,101.0,13.4,1505.2,325.3,-0.8,1.8,2470.27,13.3,0.07,110.0
2020-02-06T02:07:03,42.805,6.029,0.046,-0.017,-0.026,104.0,109.0,103.0,13.4,1505.3,325.8,-0.7,1.8,2470.249,13.31,0.049,110.3
2020-02-06T02:10:03,42.805,6.029,0.063,0.013,-0.023,105.0,111.0,103.0,13.3,1505.3,325.4,-0.7,1.9,2470.256,13.31,0.064,78.3
2020-02-06T02:13:03,42.805,6.029,0.036,-0.013,-0.006,106.0,113.0,101.0,13.4,1505.3,327.4,-0.7,1.8,2470.272,13.32,0.038,109.9
2020-02-06T02:16:03,42.805,6.029,0.048,-0.009,0.0,106.0,111.0,102.0,13.3,1505.3,323.7,-0.7,1.8,2470.293,13.32,0.048,100.6
2020-02-06T02:19:03,42.805,6.029,0.038,-0.011,-0.024,106.0,113.0,102.0,13.4,1505.3,327.9,-0.7,1.8,2470.264,13.32,0.039,106.1
2020-02-06T02:22:03,42.805,6.029,0.066,0.005,0.003,106.0,112.0,102.0,13.4,1505.3,325.2,-0.7,1.8,2470.277,13.32,0.066,85.7
2020-02-06T02:25:03,42.805,6.029,0.068,-0.016,-0.011,106.0,110.0,102.0,13.4,1505.3,323.4,-0.7,1.8,2470.254,13.32,0.069,103.2
2020-02-06T02:28:03,42.805,6.029,0.051,0.01,0.008,105.0,111.0,102.0,13.3,1505.3,324.1,-0.7,1.8,2470.297,13.32,0.051,78.9
2020-02-06T02:31:03,42.805,6.029,0.048,-0.012,0.012,105.0,108.0,102.0,13.4,1505.3,327.8,-0.7,1.8,2470.267,13.32,0.049,104.0
2020-02-06T02:34:03,42.805,6.029,0.061,-0.002,-0.008,106.0,111.0,102.0,13.4,1505.3,325.1,-0.7,1.8,2470.243,13.32,0.061,91.9
2020-02-06T02:37:03,42.805,6.029,0.06,-0.006,-0.005,105.0,109.0,103.0,13.3,1505.3,323.5,-0.7,1.8,2470.237,13.32,0.06,95.7
2020-02-06T02:40:03,42.805,6.029,0.059,-0.007,-0.044,107.0,112.0,102.0,13.4,1505.3,327.1,-0.7,1.8,2470.232,13.32,0.059,96.8
2020-02-06T02:43:03,42.805,6.029,0.033,-0.02,-0.009,107.0,112.0,102.0,13.4,1505.3,327.0,-0.7,1.8,2470.238,13.32,0.038,121.2
2020-02-06T02:46:03,42.805,6.029,0.059,-0.009,-0.03,107.0,108.0,102.0,13.4,1505.3,326.2,-0.7,1.9,2470.271,13.32,0.059,98.7
2020-02-06T02:49:03,42.805,6.029,0.056,-0.007,-0.004,106.0,109.0,102.0,13.4,1505.3,326.2,-0.7,1.8,2470.303,13.32,0.056,97.1
2020-02-06T02:52:03,42.805,6.029,0.049,0.002,-0.013,106.0,109.0,101.0,13.4,1505.3,326.4,-0.7,1.8,2470.244,13.32,0.049,87.7
2020-02-06T02:55:03,42.805,6.029,0.058,-0.003,-0.05,106.0,110.0,103.0,13.4,1505.3,325.3,-0.7,1.8,2470.256,13.32,0.058,93.0
2020-02-06T02:58:03,42.805,6.029,0.064,0.0,-0.013,107.0,111.0,103.0,13.4,1505.3,325.3,-0.7,1.9,2470.3,13.32,0.063,90.0
2020-02-06T03:04:03,42.805,6.029,0.051,0.006,-0.02,106.0,110.0,103.0,13.4,1505.2,325.0,-0.7,1.8,2470.287,13.3,0.051,83.3
2020-02-06T03:07:03,42.805,6.029,0.043,0.01,0.0,106.0,113.0,103.0,13.3,1505.3,327.8,-0.7,1.8,2470.332,13.31,0.044,76.9
2020-02-06T03:10:03,42.805,6.029,0.036,0.01,-0.021,106.0,113.0,103.0,13.4,1505.3,325.4,-0.7,1.8,2470.335,13.31,0.037,74.5
2020-02-06T03:13:03,42.805,6.029,0.041,-0.017,-0.036,106.0,111.0,103.0,13.4,1505.3,327.7,-0.7,1.8,2470.301,13.32,0.044,112.5
2020-02-06T03:16:03,42.805,6.029,0.047,0.005,0.004,106.0,111.0,103.0,13.3,1505.3,324.5,-0.7,1.8,2470.304,13.32,0.047,83.9
2020-02-06T03:19:03,42.805,6.029,0.062,0.013,-0.028,106.0,112.0,103.0,13.4,1505.3,326.2,-0.7,1.8,2470.292,13.32,0.063,78.2
2020-02-06T03:22:03,42.805,6.029,0.048,0.003,-0.015,106.0,111.0,103.0,13.4,1505.3,325.9,-0.8,1.8,2470.35,13.32,0.048,86.4
2020-02-06T03:25:03,42.805,6.029,0.038,0.011,-0.004,106.0,114.0,102.0,13.4,1505.3,325.5,-0.7,1.8,2470.313,13.32,0.039,73.9
2020-02-06T03:28:03,42.805,6.029,0.044,0.016,-0.024,106.0,113.0,101.0,13.4,1505.3,323.6,-0.7,1.8,2470.304,13.32,0.046,70.0
2020-02-06T03:31:02,42.805,6.029,0.057,0.005,-0.002,106.0,111.0,103.0,13.4,1505.3,326.0,-0.7,1.8,2470.32,13.32,0.057,85.0
2020-02-06T03:34:03,42.805,6.029,0.056,-0.014,-0.007,107.0,111.0,102.0,13.4,1505.3,325.7,-0.7,1.8,2470.31,13.32,0.057,104.0
2020-02-06T03:37:02,42.805,6.029,0.058,0.015,-0.01,104.0,109.0,103.0,13.4,1505.3,326.1,-0.7,1.8,2470.331,13.32,0.059,75.5
2020-02-06T03:40:03,42.805,6.029,0.073,-0.005,-0.012,105.0,110.0,103.0,13.4,1505.3,327.7,-0.7,1.8,2470.283,13.32,0.073,93.9
2020-02-06T03:43:02,42.805,6.029,0.058,0.015,-0.001,105.0,111.0,102.0,13.3,1505.3,324.5,-0.7,1.9,2470.299,13.32,0.059,75.5
2020-02-06T03:46:03,42.805,6.029,0.054,-0.023,-0.007,105.0,108.0,102.0,13.4,1505.3,324.6,-0.7,1.9,2470.305,13.32,0.058,113.1
2020-02-06T03:49:03,42.805,6.029,0.055,-0.008,-0.029,106.0,110.0,102.0,13.4,1505.3,326.8,-0.7,1.8,2470.303,13.32,0.055,98.3
2020-02-06T03:52:03,42.805,6.029,0.054,-0.031,-0.006,105.0,111.0,102.0,13.4,1505.3,326.8,-0.7,1.8,2470.319,13.32,0.062,119.9
2020-02-06T03:55:02,42.805,6.029,0.056,-0.001,-0.015,106.0,112.0,101.0,13.4,1505.3,323.3,-0.7,1.8,2470.31,13.32,0.056,91.0
2020-02-06T03:58:03,42.805,6.029,0.06,-0.002,0.024,106.0,112.0,103.0,13.4,1505.3,328.1,-0.7,1.8,2470.314,13.32,0.06,91.9
2020-02-06T04:04:03,42.805,6.029,0.061,-0.003,-0.019,105.0,112.0,102.0,13.3,1505.2,324.9,-0.8,1.8,2470.386,13.3,0.061,92.8
2020-02-06T04:07:03,42.805,6.029,0.055,0.01,-0.035,105.0,110.0,101.0,13.3,1505.3,326.6,-0.7,1.8,2470.349,13.31,0.055,79.7
2020-02-06T04:10:02,42.805,6.029,0.07,0.001,0.009,106.0,110.0,103.0,13.3,1505.3,327.0,-0.7,1.8,2470.347,13.31,0.07,89.2
2020-02-06T04:13:02,42.805,6.029,0.054,0.002,0.0,106.0,109.0,103.0,13.4,1505.3,325.3,-0.7,1.9,2470.336,13.32,0.054,87.9
2020-02-06T04:16:03,42.805,6.029,0.057,-0.023,0.013,105.0,109.0,103.0,13.3,1505.3,328.1,-0.7,1.8,2470.325,13.32,0.061,112.0
2020-02-06T04:19:02,42.805,6.029,0.042,0.004,0.004,106.0,111.0,102.0,13.4,1505.3,326.5,-0.7,1.8,2470.293,13.32,0.042,84.6
2020-02-06T04:22:02,42.805,6.029,0.072,0.001,-0.017,106.0,108.0,103.0,13.4,1505.3,324.9,-0.7,1.8,2470.299,13.32,0.072,89.2
2020-02-06T04:25:02,42.805,6.029,0.051,-0.006,-0.02,105.0,109.0,103.0,13.3,1505.3,325.0,-0.7,1.8,2470.371,13.32,0.051,96.7
2020-02-06T04:28:02,42.805,6.029,0.067,-0.005,0.011,106.0,109.0,102.0,13.4,1505.3,323.8,-0.7,1.8,2470.337,13.32,0.067,94.3
2020-02-06T04:31:03,42.805,6.029,0.051,-0.018,-0.032,105.0,110.0,102.0,13.3,1505.3,324.5,-0.7,1.8,2470.355,13.32,0.054,109.4
2020-02-06T04:34:02,42.805,6.029,0.043,-0.006,-0.042,106.0,110.0,102.0,13.3,1505.3,326.9,-0.7,1.8,2470.343,13.32,0.043,97.9
2020-02-06T04:37:02,42.805,6.029,0.041,0.004,-0.024,106.0,109.0,103.0,13.3,1505.3,326.0,-0.7,1.8,2470.34,13.32,0.041,84.4
2020-02-06T04:40:02,42.805,6.029,0.063,-0.007,0.019,105.0,108.0,102.0,13.4,1505.3,326.5,-0.7,1.9,2470.334,13.32,0.063,96.3
2020-02-06T04:43:02,42.805,6.029,0.039,-0.009,-0.012,105.0,107.0,103.0,13.4,1505.3,325.7,-0.7,1.8,2470.346,13.32,0.04,103.0
2020-02-06T04:49:02,42.805,6.029,0.066,-0.013,-0.016,105.0,109.0,101.0,13.4,1505.2,327.7,-0.7,1.9,2470.403,13.3,0.067,101.1
2020-02-06T04:52:02,42.805,6.029,0.048,0.003,-0.014,106.0,111.0,102.0,13.4,1505.3,325.3,-0.7,1.8,2470.358,13.31,0.048,86.4
2020-02-06T04:55:02,42.805,6.029,0.047,0.003,-0.018,106.0,110.0,102.0,13.4,1505.3,324.8,-0.7,1.8,2470.325,13.31,0.047,86.4
2020-02-06T04:58:02,42.805,6.029,0.057,-0.023,-0.009,106.0,109.0,103.0,13.4,1505.3,326.0,-0.7,1.8,2470.344,13.32,0.061,112.0
2020-02-06T05:04:02,42.805,6.029,0.039,-0.005,-0.009,106.0,108.0,103.0,13.4,1505.2,324.4,-0.8,1.8,2470.353,13.3,0.039,97.3
2020-02-06T05:07:02,42.805,6.029,0.034,-0.012,-0.045,107.0,112.0,103.0,13.4,1505.3,325.0,-0.7,1.8,2470.341,13.31,0.036,109.4
2020-02-06T05:10:02,42.805,6.029,0.044,-0.01,-0.031,106.0,108.0,102.0,13.4,1505.3,328.1,-0.7,1.8,2470.365,13.31,0.045,102.8
2020-02-06T05:13:02,42.805,6.029,0.069,-0.005,-0.022,105.0,108.0,102.0,13.4,1505.3,324.6,-0.7,1.8,2470.366,13.32,0.069,94.1
2020-02-06T05:16:02,42.805,6.029,0.058,-0.014,-0.042,105.0,110.0,102.0,13.4,1505.3,323.2,-0.7,1.8,2470.378,13.32,0.059,103.6
2020-02-06T05:19:02,42.805,6.029,0.03,-0.028,-0.047,105.0,110.0,102.0,13.4,1505.3,327.6,-0.7,1.9,2470.352,13.32,0.041,133.0
2020-02-06T05:22:02,42.805,6.029,0.053,0.002,0.006,105.0,109.0,102.0,13.4,1505.3,324.1,-0.7,1.9,2470.35,13.32,0.053,87.8
2020-02-06T05:25:02,42.805,6.029,0.066,0.01,-0.017,106.0,110.0,102.0,13.4,1505.3,326.4,-0.7,1.9,2470.367,13.32,0.066,81.4
2020-02-06T05:28:02,42.805,6.029,0.047,0.004,-0.017,106.0,110.0,103.0,13.4,1505.3,326.4,-0.7,1.8,2470.369,13.32,0.047,85.1
2020-02-06T05:31:02,42.805,6.029,0.041,0.0,-0.002,105.0,107.0,101.0,13.4,1505.3,326.3,-0.7,1.8,2470.314,13.32,0.041,90.0
2020-02-06T05:34:02,42.805,6.029,0.071,-0.013,-0.001,107.0,110.0,102.0,13.4,1505.3,326.6,-0.7,1.8,2470.304,13.32,0.072,100.4
2020-02-06T05:37:02,42.805,6.029,0.053,-0.005,0.002,105.0,109.0,101.0,13.4,1505.3,323.8,-0.7,1.8,2470.317,13.32,0.053,95.4
2020-02-06T05:40:02,42.805,6.029,0.056,-0.008,-0.036,105.0,109.0,102.0,13.4,1505.3,324.7,-0.7,1.8,2470.324,13.32,0.056,98.1
2020-02-06T05:43:02,42.805,6.029,0.068,-0.023,-0.026,105.0,107.0,102.0,13.4,1505.3,327.1,-0.7,1.8,2470.321,13.32,0.071,108.7
2020-02-06T05:46:02,42.805,6.029,0.062,0.007,-0.011,105.0,108.0,102.0,13.4,1505.3,325.7,-0.7,1.8,2470.345,13.32,0.062,83.6
2020-02-06T05:49:02,42.805,6.029,0.057,-0.015,-0.031,105.0,106.0,103.0,13.4,1505.3,328.4,-0.7,1.8,2470.362,13.32,0.058,104.7
2020-02-06T05:52:02,42.805,6.029,0.053,-0.026,-0.002,106.0,110.0,103.0,13.4,1505.3,324.6,-0.7,1.8,2470.378,13.32,0.059,116.1
2020-02-06T05:55:02,42.805,6.029,0.045,-0.004,0.007,106.0,108.0,102.0,13.3,1505.3,323.7,-0.7,1.9,2470.36,13.32,0.045,95.1
2020-02-06T05:58:02,42.805,6.029,0.054,-0.008,-0.036,106.0,108.0,102.0,13.4,1505.3,325.4,-0.7,1.8,2470.281,13.32,0.054,98.4
2020-02-06T06:04:02,42.805,6.029,0.039,-0.007,0.0,105.0,107.0,101.0,13.4,1505.2,328.7,-0.7,1.8,2470.366,13.3,0.039,100.2
2020-02-06T06:07:02,42.805,6.029,0.06,-0.007,-0.015,106.0,109.0,102.0,13.4,1505.3,324.6,-0.7,1.8,2470.351,13.31,0.06,96.7
2020-02-06T06:10:02,42.805,6.029,0.064,0.0,0.014,105.0,108.0,102.0,13.4,1505.3,324.2,-0.7,1.8,2470.33,13.31,0.063,90.0
2020-02-06T06:13:02,42.805,6.029,0.06,-0.012,-0.035,105.0,107.0,103.0,13.4,1505.3,328.0,-0.7,1.8,2470.307,13.32,0.061,101.3
2020-02-06T06:16:02,42.805,6.029,0.086,0.002,0.005,106.0,107.0,101.0,13.4,1505.3,324.2,-0.7,1.8,2470.365,13.32,0.086,88.7
2020-02-06T06:19:02,42.805,6.029,0.048,0.003,-0.035,105.0,108.0,102.0,13.4,1505.3,323.5,-0.8,1.8,2470.341,13.32,0.048,86.4
2020-02-06T06:22:02,42.805,6.029,0.086,0.0,-0.026,105.0,108.0,102.0,13.3,1505.3,325.0,-0.7,1.8,2470.37,13.32,0.085,90.0
2020-02-06T06:25:02,42.805,6.029,0.051,0.006,-0.033,105.0,107.0,103.0,13.4,1505.3,323.1,-0.7,1.8,2470.368,13.32,0.051,83.3
2020-02-06T06:28:02,42.805,6.029,0.068,-0.036,-0.02,104.0,107.0,103.0,13.3,1505.3,327.5,-0.7,1.8,2470.355,13.32,0.076,117.9
2020-02-06T06:31:02,42.805,6.029,0.071,-0.014,0.005,104.0,108.0,102.0,13.4,1505.3,326.8,-0.7,1.8,2470.379,13.32,0.072,101.2
2020-02-06T06:34:02,42.805,6.029,0.069,-0.014,-0.01,106.0,108.0,103.0,13.4,1505.3,323.9,-0.7,1.8,2470.311,13.32,0.07,101.5
2020-02-06T06:37:02,42.805,6.029,0.039,-0.033,-0.026,105.0,108.0,102.0,13.4,1505.3,326.2,-0.7,1.8,2470.336,13.32,0.051,130.2
2020-02-06T06:40:02,42.805,6.029,0.064,-0.021,-0.022,105.0,107.0,103.0,13.4,1505.3,324.2,-0.7,1.8,2470.325,13.32,0.067,108.2
2020-02-06T06:43:02,42.805,6.029,0.036,-0.024,-0.011,106.0,107.0,101.0,13.4,1505.3,326.5,-0.7,1.8,2470.322,13.32,0.043,123.7
2020-02-06T06:46:02,42.805,6.029,0.072,-0.008,-0.017,105.0,108.0,102.0,13.4,1505.3,326.4,-0.7,1.8,2470.36,13.32,0.072,96.3
2020-02-06T06:49:02,42.805,6.029,0.05,-0.023,-0.043,105.0,108.0,102.0,13.4,1505.3,327.7,-0.7,1.8,2470.322,13.32,0.055,114.7
2020-02-06T06:52:02,42.805,6.029,0.081,-0.012,-0.018,104.0,108.0,103.0,13.4,1505.3,326.3,-0.7,1.9,2470.345,13.32,0.081,98.4
2020-02-06T06:55:02,42.805,6.029,0.056,-0.012,-0.017,106.0,108.0,101.0,13.3,1505.3,328.0,-0.7,1.8,2470.351,13.32,0.057,102.1
2020-02-06T06:58:02,42.805,6.029,0.042,-0.002,-0.001,106.0,106.0,102.0,13.4,1505.3,324.3,-0.7,1.8,2470.316,13.32,0.042,92.7
2020-02-06T07:04:02,42.805,6.029,0.058,-0.014,-0.02,105.0,107.0,102.0,13.4,1505.2,325.2,-0.8,1.8,2470.393,13.3,0.059,103.6
2020-02-06T07:07:02,42.805,6.029,0.066,-0.024,-0.013,106.0,106.0,102.0,13.4,1505.3,324.5,-0.7,1.8,2470.34,13.31,0.07,110.0
2020-02-06T07:10:02,42.805,6.029,0.047,-0.033,-0.003,105.0,107.0,102.0,13.3,1505.3,327.3,-0.7,1.8,2470.335,13.31,0.057,125.1
2020-02-06T07:13:02,42.805,6.029,0.06,-0.017,0.003,104.0,106.0,103.0,13.4,1505.3,323.7,-0.7,1.8,2470.292,13.32,0.062,105.8
2020-02-06T07:19:02,42.805,6.029,0.032,-0.007,-0.036,104.0,107.0,102.0,13.3,1505.2,325.6,-0.8,1.8,2470.379,13.3,0.032,102.3
2020-02-06T07:22:02,42.805,6.029,0.042,0.011,-0.023,105.0,107.0,102.0,13.4,1505.3,327.7,-0.8,1.8,2470.351,13.31,0.043,75.3
2020-02-06T07:25:03,42.805,6.029,0.05,-0.031,-0.028,105.0,107.0,103.0,13.4,1505.3,325.7,-0.7,1.9,2470.363,13.31,0.058,121.8
2020-02-06T07:28:02,42.805,6.029,0.068,-0.007,-0.005,106.0,108.0,103.0,13.4,1505.3,325.9,-0.7,1.9,2470.355,13.32,0.068,95.9
2020-02-06T07:31:02,42.805,6.029,0.059,-0.008,0.013,105.0,106.0,101.0,13.4,1505.3,325.7,-0.7,1.8,2470.309,13.32,0.059,97.7
2020-02-06T07:34:02,42.805,6.029,0.033,-0.007,-0.029,105.0,105.0,102.0,13.4,1505.3,323.4,-0.7,1.8,2470.32,13.32,0.033,102.0
2020-02-06T07:37:02,42.805,6.029,0.057,-0.037,-0.033,105.0,106.0,102.0,13.4,1505.3,326.1,-0.7,1.8,2470.301,13.32,0.067,123.0
2020-02-06T07:40:02,42.805,6.029,0.067,-0.004,-0.029,105.0,107.0,101.0,13.4,1505.3,324.0,-0.7,1.8,2470.284,13.32,0.067,93.4
2020-02-06T07:43:02,42.805,6.029,0.061,-0.002,-0.007,106.0,107.0,103.0,13.4,1505.3,324.7,-0.7,1.8,2470.315,13.32,0.061,91.9
2020-02-06T07:46:02,42.805,6.029,0.067,0.01,0.0,105.0,106.0,101.0,13.3,1505.3,324.1,-0.7,1.9,2470.316,13.32,0.067,81.5
2020-02-06T07:49:02,42.805,6.029,0.074,-0.014,-0.025,104.0,106.0,102.0,13.4,1505.3,326.0,-0.7,1.8,2470.313,13.32,0.075,100.7
2020-02-06T07:52:02,42.805,6.029,0.037,-0.008,-0.033,105.0,106.0,102.0,13.4,1505.3,324.6,-0.7,1.8,2470.296,13.32,0.037,102.2
2020-02-06T07:55:02,42.805,6.029,0.081,-0.023,-0.002,106.0,107.0,102.0,13.4,1505.3,324.3,-0.7,1.8,2470.299,13.32,0.084,105.8
2020-02-06T07:58:02,42.805,6.029,0.067,-0.035,-0.013,105.0,105.0,101.0,13.4,1505.3,326.0,-0.7,1.9,2470.3,13.32,0.075,117.6
2020-02-06T08:04:02,42.805,6.029,0.073,-0.009,-0.003,104.0,106.0,103.0,13.4,1505.2,325.9,-0.8,1.8,2470.352,13.3,0.073,97.0
2020-02-06T08:07:02,42.805,6.029,0.053,-0.026,-0.027,105.0,108.0,100.0,13.3,1505.3,325.8,-0.7,1.8,2470.345,13.31,0.059,116.1
2020-02-06T08:10:02,42.805,6.029,0.058,-0.004,-0.018,104.0,106.0,102.0,13.4,1505.3,328.8,-0.7,1.9,2470.299,13.31,0.058,93.9
2020-02-06T08:13:02,42.805,6.029,0.04,0.0,0.004,104.0,107.0,102.0,13.4,1505.3,326.2,-0.7,1.9,2470.324,13.32,0.04,90.0
2020-02-06T08:16:03,42.805,6.029,0.046,-0.017,-0.016,106.0,110.0,101.0,13.4,1505.3,326.5,-0.7,1.9,2470.344,13.32,0.049,110.3
2020-02-06T08:19:03,42.805,6.029,0.043,-0.02,-0.011,107.0,106.0,101.0,13.3,1505.3,324.6,-0.7,1.8,2470.299,13.32,0.047,114.9
2020-02-06T08:22:02,42.805,6.029,0.069,-0.032,-0.029,105.0,107.0,102.0,13.3,1505.3,326.0,-0.7,1.8,2470.299,13.32,0.076,114.9
2020-02-06T08:25:02,42.805,6.029,0.062,-0.006,-0.023,105.0,108.0,102.0,13.4,1505.3,322.9,-0.7,1.8,2470.292,13.32,0.062,95.5
2020-02-06T08:28:02,42.805,6.029,0.047,-0.024,-0.013,104.0,109.0,101.0,13.4,1505.3,326.5,-0.8,1.8,2470.326,13.32,0.052,117.0
2020-02-06T08:31:02,42.805,6.029,0.062,-0.028,-0.024,105.0,108.0,102.0,13.4,1505.3,326.8,-0.7,1.8,2470.287,13.32,0.068,114.3
2020-02-06T08:34:03,42.805,6.029,0.067,-0.002,-0.005,104.0,108.0,103.0,13.4,1505.3,322.8,-0.7,1.8,2470.314,13.32,0.067,91.7
2020-02-06T08:37:02,42.805,6.029,0.054,0.019,-0.013,105.0,112.0,102.0,13.4,1505.3,326.4,-0.7,1.8,2470.272,13.32,0.057,70.6
2020-02-06T08:40:02,42.805,6.029,0.043,-0.012,-0.034,106.0,106.0,100.0,13.4,1505.3,325.6,-0.7,1.8,2470.259,13.32,0.044,105.6
2020-02-06T08:43:03,42.805,6.029,0.064,-0.026,-0.014,104.0,108.0,101.0,13.3,1505.3,324.0,-0.7,1.8,2470.261,13.32,0.069,112.1
2020-02-06T08:46:03,42.805,6.029,0.045,0.009,-0.03,104.0,107.0,101.0,13.4,1505.3,324.4,-0.7,1.8,2470.266,13.32,0.045,78.7
2020-02-06T08:49:03,42.805,6.029,0.055,-0.023,0.013,105.0,108.0,102.0,13.4,1505.3,324.3,-0.7,1.8,2470.276,13.32,0.059,112.7
2020-02-06T08:52:02,42.805,6.029,0.065,-0.048,-0.012,104.0,108.0,102.0,13.4,1505.3,327.2,-0.7,1.8,2470.268,13.32,0.08,126.4
2020-02-06T08:55:02,42.805,6.029,0.051,-0.013,-0.019,105.0,107.0,101.0,13.3,1505.3,325.2,-0.7,1.8,2470.274,13.32,0.052,104.3
2020-02-06T08:58:03,42.805,6.029,0.054,-0.008,0.003,104.0,107.0,102.0,13.4,1505.3,325.6,-0.7,1.8,2470.276,13.32,0.054,98.4
2020-02-06T09:04:02,42.805,6.029,0.057,0.018,-0.003,105.0,106.0,101.0,13.4,1505.2,323.7,-0.7,1.8,2470.297,13.3,0.059,72.5
2020-02-06T09:07:02,42.805,6.029,0.078,-0.016,0.014,104.0,106.0,101.0,13.4,1505.3,327.5,-0.7,1.8,2470.326,13.31,0.079,101.6
2020-02-06T09:10:02,42.805,6.029,0.029,-0.011,-0.024,104.0,107.0,102.0,13.4,1505.3,323.0,-0.7,1.9,2470.256,13.31,0.031,110.8
2020-02-06T09:13:02,42.805,6.029,0.04,0.0,-0.01,104.0,107.0,103.0,13.4,1505.3,324.8,-0.7,1.8,2470.304,13.32,0.04,90.0
2020-02-06T09:16:02,42.805,6.029,0.055,-0.004,-0.018,105.0,108.0,102.0,13.3,1505.3,327.7,-0.7,1.8,2470.258,13.32,0.055,94.2
2020-02-06T09:19:03,42.805,6.029,0.039,-0.016,-0.016,105.0,109.0,101.0,13.4,1505.3,325.8,-0.7,1.8,2470.259,13.32,0.042,112.3
2020-02-06T09:22:02,42.805,6.029,0.054,-0.02,-0.015,105.0,106.0,101.0,13.4,1505.3,327.7,-0.7,1.8,2470.302,13.32,0.057,110.3
2020-02-06T09:25:02,42.805,6.029,0.055,-0.023,-0.01,107.0,108.0,101.0,13.4,1505.3,324.5,-0.7,1.8,2470.262,13.32,0.059,112.7
2020-02-06T09:28:02,42.805,6.029,0.047,-0.019,0.004,104.0,107.0,103.0,13.4,1505.3,327.1,-0.7,1.8,2470.27,13.32,0.05,112.0
2020-02-06T09:31:03,42.805,6.029,0.034,-0.019,-0.023,105.0,108.0,102.0,13.4,1505.3,327.8,-0.7,1.8,2470.254,13.32,0.038,119.2
2020-02-06T09:34:03,42.805,6.029,0.066,-0.016,-0.009,104.0,107.0,101.0,13.4,1505.3,326.0,-0.7,1.8,2470.258,13.32,0.067,103.6
2020-02-06T09:37:02,42.805,6.029,0.037,-0.016,-0.033,106.0,106.0,102.0,13.3,1505.3,328.2,-0.7,1.8,2470.283,13.32,0.04,113.4
2020-02-06T09:40:03,42.805,6.029,0.039,-0.007,-0.005,107.0,110.0,102.0,13.4,1505.3,323.4,-0.7,1.8,2470.207,13.32,0.039,100.2
2020-02-06T09:43:02,42.805,6.029,0.05,-0.011,0.008,105.0,107.0,103.0,13.4,1505.3,325.6,-0.7,1.8,2470.238,13.32,0.051,102.4
2020-02-06T09:46:02,42.805,6.029,0.043,0.001,-0.005,105.0,108.0,103.0,13.4,1505.3,323.0,-0.7,1.8,2470.236,13.32,0.043,88.7
2020-02-06T09:49:02,42.805,6.029,0.05,-0.015,-0.036,106.0,108.0,101.0,13.3,1505.3,326.7,-0.7,1.8,2470.227,13.32,0.052,106.7
2020-02-06T09:52:02,42.805,6.029,0.057,0.011,-0.017,106.0,106.0,102.0,13.4,1505.3,326.5,-0.7,1.8,2470.212,13.32,0.058,79.1
2020-02-06T09:55:03,42.805,6.029,0.038,0.0,-0.011,104.0,107.0,103.0,13.4,1505.3,323.6,-0.7,1.8,2470.235,13.32,0.038,90.0
2020-02-06T09:58:03,42.805,6.029,0.057,-0.01,-0.01,105.0,106.0,102.0,13.3,1505.3,326.5,-0.7,1.8,2470.263,13.32,0.057,99.9
2020-02-06T10:04:02,42.805,6.029,0.047,0.013,-0.002,105.0,108.0,101.0,13.4,1505.2,323.4,-0.7,1.8,2470.285,13.3,0.048,74.5
2020-02-06T10:07:02,42.805,6.029,0.054,0.013,-0.015,104.0,107.0,103.0,13.3,1505.3,326.5,-0.7,1.9,2470.305,13.31,0.055,76.5
2020-02-06T10:10:02,42.805,6.029,0.063,-0.008,-0.013,106.0,107.0,101.0,13.4,1505.3,323.8,-0.7,1.8,2470.263,13.31,0.063,97.2
2020-02-06T10:13:03,42.805,6.029,0.068,0.01,0.005,105.0,107.0,103.0,13.3,1505.3,325.8,-0.7,1.8,2470.242,13.32,0.068,81.6